Hailey, ID

8:24 PM MDT on July 22, 2017 (GMT -0600)
Friedman Memorial

Weather History for KSUN - October, 2011

Change the Weather History Date:

Friday, October 7, 2011

  Actual Average Record
Temperature  
Mean Temperature 42 °F -  
Max Temperature 48 °F 62 °F 75 °F (2002)
Min Temperature 35 °F 35 °F 28 °F (1997)
Degree Days  
Heating Degree Days 24    
Moisture  
Dew Point 37 °F    
Average Humidity 95    
Maximum Humidity 100    
Minimum Humidity 81    
Precipitation  
Precipitation 0.00 in - - ()
Sea Level Pressure  
Sea Level Pressure 29.90 in    
Wind  
Wind Speed 3 mph (SSE)    
Max Wind Speed 9 mph    
Max Gust Speed -    
Visibility 9 miles    
Events Rain    
Averages and records for this station are not official NWS values.
T = Trace of Precipitation, MM = Missing Value Source: NWS Daily Summary

Daily Weather History Graph

Daily Weather History Graph

Search for Another Location

Airport or City:

Trip Planner

Search our weather history database for the weather conditions in past years. The results will help you decide how hot, cold, wet, or windy it might be!

Date:

Astronomy

Oct. 07, 2011 Rise Set
Actual Time 7:41 AM MDT 7:07 PM MDT
Civil Twilight 7:12 AM MDT 7:36 PM MDT
Nautical Twilight 6:39 AM MDT 8:09 PM MDT
Astronomical Twilight 6:06 AM MDT 8:42 PM MDT
Moon 4:58 PM MDT (10/7) 3:27 AM MDT (10/7)
Length of Visible Light 12h 23m
Length of Day
11h 26m
Waxing Gibbous, 84% of the Moon is Illuminated
Oct 7
Waxing Gibbous
Oct 11
Full
Oct 19
Last Quarter
Oct 26
New
Nov 2
First Quarter

Hourly Weather History & Observations

Time (MDT) Temp. Windchill Dew Point Humidity Pressure Visibility Wind Dir Wind Speed Gust Speed Precip Events Conditions
12:15 AM 35.6 °F 32.8 °F 35.6 °F 100% 29.81 in 10.0 mi SSE 3.5 mph - N/A   Overcast
12:35 AM 35.6 °F - 33.8 °F 93% 29.81 in 10.0 mi Calm Calm - N/A   Overcast
12:55 AM 35.6 °F - 33.8 °F 93% 29.81 in 10.0 mi Calm Calm - N/A   Overcast
1:15 AM 35.6 °F - 35.6 °F 100% 29.81 in 10.0 mi Calm Calm - N/A   Overcast
1:35 AM 35.6 °F - 35.6 °F 100% 29.81 in 10.0 mi Calm Calm - N/A   Overcast
1:55 AM 35.6 °F - 35.6 °F 100% 29.81 in 10.0 mi Calm Calm - N/A   Overcast
2:15 AM 35.6 °F 32.8 °F 35.6 °F 100% 29.81 in 10.0 mi SSE 3.5 mph - N/A   Overcast
2:35 AM 35.6 °F 29.9 °F 35.6 °F 100% 29.81 in 10.0 mi SE 6.9 mph - N/A   Overcast
2:55 AM 35.6 °F 30.7 °F 35.6 °F 100% 29.82 in 10.0 mi SE 5.8 mph - N/A   Overcast
3:15 AM 35.6 °F 30.7 °F 35.6 °F 100% 29.81 in 10.0 mi SE 5.8 mph - N/A   Overcast
3:35 AM 35.6 °F 32.8 °F 35.6 °F 100% 29.82 in 10.0 mi South 3.5 mph - N/A   Overcast
3:55 AM 35.6 °F 32.8 °F 35.6 °F 100% 29.82 in 10.0 mi SE 3.5 mph - N/A   Overcast
4:15 AM 35.6 °F 32.8 °F 35.6 °F 100% 29.83 in 10.0 mi SE 3.5 mph - N/A   Overcast
4:35 AM 35.6 °F 32.8 °F 35.6 °F 100% 29.83 in 10.0 mi SSE 3.5 mph - N/A   Mostly Cloudy
4:55 AM 35.6 °F 32.8 °F 35.6 °F 100% 29.83 in 10.0 mi SSE 3.5 mph - N/A   Mostly Cloudy
5:15 AM 35.6 °F - 35.6 °F 100% 29.83 in 10.0 mi Calm Calm - N/A   Overcast
5:35 AM 35.6 °F - 35.6 °F 100% 29.84 in 10.0 mi Calm Calm - N/A   Overcast
6:15 AM 35.6 °F - 35.6 °F 100% 29.85 in 10.0 mi Calm Calm - N/A   Overcast
6:35 AM 35.6 °F 31.7 °F 35.6 °F 100% 29.86 in 10.0 mi South 4.6 mph - N/A   Overcast
6:47 AM 37.4 °F - 37.4 °F 100% 29.86 in 7.0 mi Calm Calm - N/A   Overcast
6:55 AM 35.6 °F - 35.6 °F 100% 29.86 in 10.0 mi Calm Calm - N/A   Overcast
7:47 AM 37.4 °F - 37.4 °F 100% 29.89 in 7.0 mi Calm Calm - N/A   Overcast
8:47 AM 37.4 °F 34.9 °F 37.4 °F 100% 29.92 in 7.0 mi SE 3.5 mph - N/A Rain Light Rain
9:47 AM 39.2 °F - 35.6 °F 87% 29.94 in 7.0 mi Calm Calm - N/A   Mostly Cloudy
10:47 AM 41.0 °F 39.0 °F 37.4 °F 87% 29.95 in 7.0 mi WNW 3.5 mph - N/A   Overcast
11:47 AM 42.8 °F 40.1 °F 39.2 °F 87% 29.96 in 7.0 mi SE 4.6 mph - N/A   Overcast
12:50 PM 44.6 °F 40.2 °F 41.0 °F 87% 29.96 in 7.0 mi SSE 8.1 mph - N/A   Overcast
3:47 PM 46.4 °F 41.9 °F 42.8 °F 87% 29.97 in 7.0 mi ESE 9.2 mph - N/A   Overcast
4:47 PM 48.2 °F - 42.8 °F 82% 29.98 in 7.0 mi SSE 4.6 mph - N/A   Overcast
7:47 PM 46.4 °F 44.3 °F 42.8 °F 87% 30.02 in 7.0 mi East 4.6 mph - N/A   Mostly Cloudy
8:47 PM 44.6 °F - 42.8 °F 93% 30.05 in 7.0 mi Calm Calm - N/A   Mostly Cloudy
9:47 PM 44.6 °F - 42.8 °F 93% 30.07 in 7.0 mi Calm Calm - N/A   Mostly Cloudy
10:47 PM 42.8 °F 39.3 °F 41.0 °F 93% 30.08 in 7.0 mi West 5.8 mph - N/A   Scattered Clouds
11:15 PM 42.8 °F 38.6 °F 37.4 °F 81% 30.09 in 10.0 mi WNW 6.9 mph - N/A   Mostly Cloudy
11:35 PM 42.8 °F 39.3 °F 37.4 °F 81% 30.09 in 10.0 mi NNW 5.8 mph - N/A   Overcast
11:55 PM 42.8 °F 39.3 °F 37.4 °F 81% 30.09 in 10.0 mi WNW 5.8 mph - N/A   Mostly Cloudy